Temp
84 83 83 81 80 80 78 75 75 75 75 75 75 75 75 74 75 75 76 75 75 79 80 79 78 80 75 78 74 74 74 74 74 74 74 74 74 73 74 73 73 72 73 73 73 73 73 73 73 73 73 73 73 80 86 85 86 86 86 86 83 82
82 82 82 81 81 80 79 79 81 79 79 77 76 76 78 80 79 80 76 77 81 81 82 82 81 77 78 76 75 73 74 74 74 74 73 73 73 73 73 73 73 72 71 73 72 78 77 74 73 73 73 73 78 86 84 85 86 86 86 84 82 78
81 81 82 82 81 81 81 82 82 81 80 78 78 79 79 79 81 80 79 83 80 81 82 82 80 78 77 74 77 74 74 74 73 73 73 73 73 72 72 73 72 73 72 70 78 81 81 80 78 74 74 77 86 85 85 84 85 86 87 84 82 74
82 82 82 82 81 80 81 82 83 81 79 79 78 79 79 77 77 77 82 80 81 81 81 81 77 76 76 78 77 74 73 73 73 73 73 75 73 73 72 71 72 72 74 81 84 82 82 81 80 79 79 83 86 84 84 84 86 85 86 86 83 74
80 83 83 80 81 82 81 83 83 81 80 79 77 75 74 73 77 82 81 81 82 81 81 81 81 81 83 81 81 80 79 80 80 79 75 81 81 80 79 82 81 79 84 86 87 85 83 81 80 81 82 85 85 84 84 84 85 86 86 82 79 74
83 83 81 81 81 81 80 82 82 81 79 79 76 70 70 72 80 80 81 81 81 80 80 80 80 80 81 82 82 83 84 83 82 81 81 83 83 82 83 84 84 85 85 86 86 86 86 84 82 82 82 84 85 85 86 87 87 85 84 82 78 74
82 82 82 83 82 81 83 83 82 82 80 77 76 73 72 75 78 79 80 80 79 80 78 78 79 80 80 82 82 83 83 83 82 82 82 83 81 81 82 81 83 84 85 85 86 86 85 85 85 84 84 86 86 86 86 87 86 85 83 81 78 73
83 81 81 83 82 83 83 82 81 78 79 78 77 73 69 76 77 78 79 80 80 80 79 79 79 80 80 82 82 82 83 83 82 83 82 82 80 81 81 82 82 83 85 85 86 85 86 87 85 87 87 86 86 86 85 87 85 84 84 80 80 75
79 82 81 81 82 83 83 82 80 80 80 77 78 71 74 76 78 79 80 80 79 77 80 80 80 81 82 81 81 81 82 82 81 82 80 79 80 79 80 81 81 83 83 84 83 83 85 86 85 86 87 87 86 86 85 85 84 84 84 83 78 77
80 83 81 80 79 80 81 81 80 79 79 77 77 75 77 78 78 80 80 80 79 79 80 81 80 82 81 79 80 79 79 79 79 79 78 79 81 82 81 81 81 83 85 83 84 83 83 84 87 86 87 87 86 87 85 85 83 83 82 82 80 77
78 78 75 78 79 79 80 81 81 81 77 77 77 78 78 79 79 80 80 80 80 80 80 80 80 80 80 80 79 79 79 79 79 79 80 80 81 80 82 82 82 82 82 83 82 82 84 84 86 88 87 88 86 85 85 84 84 83 82 81 82 75
76 75 74 78 78 79 80 81 80 80 80 79 77 78 79 79 78 80 80 80 79 80 80 80 79 80 79 79 79 79 79 78 78 79 80 80 80 80 81 82 80 79 79 80 81 82 82 83 84 87 87 86 86 85 84 83 82 81 80 80 81 72
75 75 77 77 78 79 80 81 79 80 80 78 77 78 78 78 78 79 80 80 80 80 80 79 78 79 79 80 79 78 79 79 79 79 79 79 79 79 80 80 79 80 80 81 80 80 82 82 82 81 84 86 83 84 82 83 80 79 78 80 80 70
73 75 77 77 77 78 80 81 80 80 78 76 77 77 78 79 78 79 79 79 80 80 80 79 80 78 78 79 78 78 78 78 79 78 78 78 78 79 79 79 79 80 79 80 79 80 81 82 83 83 82 83 81 78 79 79 79 75 69 70 67 69
73 77 74 74 76 78 78 81 80 79 78 77 77 78 79 79 79 79 80 80 79 79 80 80 80 78 78 79 78 79 78 79 78 77 77 78 79 78 78 78 80 80 79 80 81 80 80 80 80 81 79 79 79 78 77 76 76 75 72 69 70 71
71 73 72 72 74 75 77 79 79 77 77 76 77 78 78 79 80 81 81 80 79 79 79 79 80 79 78 79 80 79 79 79 77 78 78 77 78 78 78 77 78 78 78 79 79 79 80 78 78 76 76 77 77 76 76 77 73 70 68 70 70 70
70 72 71 71 72 74 76 78 78 77 77 76 77 78 79 80 81 80 81 82 79 78 79 79 80 80 79 80 81 80 80 77 77 78 77 76 78 79 77 76 76 78 79 77 79 78 78 77 77 76 77 77 76 76 76 76 74 70 69 68 69 74
70 71 70 69 70 72 75 76 75 76 75 74 77 78 80 81 80 81 81 81 80 79 78 79 79 80 79 80 81 80 79 77 78 77 76 76 77 78 78 77 75 76 78 77 78 77 76 77 77 76 76 76 76 77 77 76 75 69 67 67 70 73
71 70 70 70 70 70 74 73 72 73 70 74 77 78 79 80 81 81 81 80 80 79 79 79 79 79 78 80 80 79 77 77 78 77 76 77 77 77 76 76 75 74 75 77 77 76 76 76 75 75 76 76 77 76 76 76 74 67 70 71 72 73
73 72 72 71 71 72 73 70 68 66 68 71 77 77 78 80 79 80 81 81 80 79 80 79 79 79 78 78 78 77 77 77 77 77 76 76 76 76 74 74 74 74 73 74 76 76 76 75 74 74 73 73 74 76 78 76 75 70 70 74 75 75
72 73 72 69 70 72 70 69 66 66 66 66 73 77 77 78 79 80 81 82 80 80 80 79 79 79 78 78 78 77 76 76 77 77 76 75 76 76 75 75 74 75 73 72 73 76 75 76 74 73 73 73 73 75 73 75 76 76 75 75 76 76
71 72 73 72 72 72 72 68 67 66 66 68 76 76 76 77 78 80 80 80 79 80 79 79 79 79 78 79 78 78 77 76 76 76 76 77 76 74 75 75 74 73 76 74 72 74 75 76 73 72 69 69 69 69 73 74 74 74 74 74 74 73
71 72 73 73 73 73 71 68 66 68 68 74 79 78 80 79 80 80 78 79 79 78 79 80 79 79 78 79 78 77 76 77 77 77 75 74 74 74 75 74 74 74 73 74 74 74 74 75 72 74 73 69 62 62 66 72 72 71 71 73 73 73
71 72 72 73 73 73 70 70 69 68 72 73 71 77 77 78 79 79 77 78 79 78 79 80 81 81 80 79 78 77 77 77 77 77 76 74 73 74 75 75 74 74 74 72 73 73 76 74 75 74 65 67 67 65 63 65 66 67 70 70 72 65
71 72 73 72 73 74 71 68 70 68 74 73 76 76 76 76 77 77 78 77 78 79 79 80 80 81 81 79 78 78 77 76 76 76 77 76 75 75 76 76 75 74 74 73 72 72 73 74 75 73 65 70 67 62 64 68 68 64 66 68 70 68
73 73 73 73 73 72 69 69 69 69 66 69 66 71 73 73 75 75 76 77 79 80 80 80 81 80 81 80 78 78 78 77 76 76 77 77 77 76 76 76 75 75 74 75 74 73 72 73 75 75 73 73 70 62 63 70 71 56 65 70 68 69
72 72 72 73 73 72 68 67 68 70 70 69 69 71 77 77 76 78 78 77 79 78 80 79 79 80 79 79 78 78 78 78 77 77 77 77 76 76 78 78 76 76 76 76 75 73 72 73 74 74 75 74 74 76 77 70 66 63 60 63 64 65
70 70 71 72 70 71 70 71 69 69 70 68 70 73 76 76 77 78 77 77 78 78 80 80 78 80 80 79 79 78 78 78 77 79 78 78 77 77 78 78 76 76 76 77 75 74 73 73 71 72 74 73 74 75 78 76 76 73 67 64 59 66
66 65 68 70 68 68 70 69 69 68 69 74 77 77 77 78 78 78 76 77 78 79 79 78 79 79 79 80 79 78 78 77 77 78 80 79 78 78 77 76 74 75 74 75 75 74 72 72 73 74 72 69 74 75 75 76 76 76 73 67 63 62
64 66 66 68 67 69 69 68 67 67 68 69 77 77 77 76 76 76 75 75 77 77 78 77 77 79 79 80 79 79 78 78 77 78 79 79 78 77 76 76 75 75 74 74 74 74 72 71 70 70 75 71 72 73 75 74 74 75 74 70 62 66
65 66 67 66 66 65 65 67 66 66 67 70 75 75 74 73 75 75 75 75 76 77 78 78 78 77 78 79 78 79 78 78 77 77 79 78 77 78 77 76 76 75 75 74 74 73 73 68 70 71 73 70 69 71 70 71 73 73 71 71 70 69
64 65 66 65 65 64 65 67 67 69 72 74 75 74 73 73 74 75 75 75 76 77 76 77 77 77 76 78 77 77 77 78 78 77 77 78 78 78 78 78 76 76 76 75 74 74 74 73 72 70 74 75 70 73 74 75 75 74 73 73 72 70
63 65 65 65 64 65 65 67 67 69 73 75 75 76 76 75 76 76 76 75 76 76 76 75 76 76 76 76 77 76 77 77 77 77 78 78 78 78 78 77 77 76 75 74 76 75 75 73 73 71 73 75 77 78 77 77 77 75 75 75 74 70
64 65 66 65 65 64 65 67 67 68 73 75 75 76 76 76 76 77 77 76 76 76 76 75 76 76 77 78 78 78 78 77 78 78 77 77 77 78 78 79 77 76 76 76 76 74 75 74 74 74 74 75 77 78 77 78 77 77 75 74 72 71
64 64 65 65 65 64 64 65 66 64 67 75 75 76 76 77 76 77 77 77 77 77 77 77 77 77 77 77 77 77 77 77 77 76 76 76 77 77 76 79 78 76 76 77 76 75 76 75 74 75 74 76 76 77 78 79 78 78 80 77 75 74
67 66 66 66 67 66 65 65 65 63 63 66 74 76 76 77 77 77 77 77 77 77 78 78 78 77 77 77 76 76 77 77 77 77 77 77 77 78 76 76 76 76 75 78 75 75 76 75 75 74 74 76 77 78 78 79 80 79 80 78 77 77
68 69 69 69 70 68 66 66 65 63 63 64 71 74 75 76 76 77 77 77 77 78 78 78 77 77 76 77 77 77 77 76 76 76 77 77 77 78 77 77 76 75 75 76 76 76 76 76 75 75 76 75 77 77 78 78 79 78 78 78 78 77
MSLP
1014.82 1015.14 1015.38 1015.74 1016.06 1016.34 1016.62 1016.82 1017.06 1017.30 1017.46 1017.62 1017.74 1017.86 1017.98 1018.10 1018.18 1018.30 1018.38 1018.50 1018.70 1018.58 1018.62 1018.74 1018.98 1019.06 1019.34 1019.42 1019.62 1019.82 1019.86 1019.86 1019.90 1019.98 1020.10 1020.22 1020.30 1020.30 1020.30 1020.30 1020.34 1020.38 1020.38 1020.38 1020.42 1020.38 1020.42 1020.54 1020.66 1020.66 1020.70 1020.74 1020.54 1019.94 1019.62 1019.70 1019.62 1019.70 1019.82 1019.98 1020.50 1021.06
1014.94 1015.26 1015.42 1015.62 1015.90 1016.18 1016.54 1016.70 1016.86 1017.14 1017.34 1017.62 1017.82 1017.94 1017.98 1017.98 1018.06 1018.14 1018.38 1018.50 1018.26 1018.38 1018.50 1018.58 1018.78 1019.10 1019.26 1019.62 1019.74 1019.98 1019.98 1019.94 1020.02 1020.14 1020.18 1020.30 1020.30 1020.30 1020.34 1020.34 1020.34 1020.38 1020.38 1020.42 1020.42 1020.26 1020.34 1020.58 1020.70 1020.74 1020.74 1020.66 1020.42 1019.66 1019.90 1019.78 1019.70 1019.82 1019.98 1020.26 1020.74 1021.38
1014.90 1015.10 1015.42 1015.66 1015.90 1016.18 1016.38 1016.50 1016.74 1016.94 1017.30 1017.50 1017.70 1017.86 1017.94 1018.18 1018.02 1018.10 1018.26 1018.02 1018.22 1018.30 1018.34 1018.54 1018.82 1019.14 1019.46 1019.62 1019.74 1019.98 1020.02 1020.02 1020.10 1020.18 1020.26 1020.34 1020.38 1020.42 1020.42 1020.42 1020.42 1020.38 1020.42 1020.42 1020.22 1020.02 1020.06 1020.30 1020.54 1020.74 1020.74 1020.54 1019.90 1019.78 1019.86 1019.98 1019.94 1019.82 1019.78 1020.42 1021.06 1021.66
1014.86 1015.06 1015.30 1015.62 1015.86 1016.14 1016.30 1016.38 1016.54 1016.86 1017.18 1017.42 1017.70 1017.86 1017.94 1018.18 1018.22 1018.34 1017.86 1018.10 1018.22 1018.34 1018.46 1018.66 1019.02 1019.22 1019.42 1019.54 1019.82 1019.98 1020.06 1020.10 1020.14 1020.22 1020.26 1020.22 1020.38 1020.38 1020.46 1020.46 1020.42 1020.38 1020.30 1020.02 1019.78 1019.98 1019.98 1020.18 1020.34 1020.46 1020.38 1020.02 1019.78 1019.98 1020.02 1020.06 1019.98 1020.10 1019.94 1020.26 1021.02 1021.74
1014.98 1014.94 1015.34 1015.74 1015.94 1016.06 1016.22 1016.34 1016.50 1016.82 1017.10 1017.38 1017.82 1018.02 1018.10 1018.34 1018.14 1017.82 1017.98 1018.14 1018.26 1018.42 1018.54 1018.74 1018.90 1018.98 1018.94 1019.22 1019.42 1019.62 1019.74 1019.62 1019.70 1019.94 1019.98 1019.78 1019.82 1020.14 1019.98 1020.02 1020.22 1020.14 1019.70 1019.54 1019.58 1019.58 1019.74 1020.06 1020.18 1020.18 1020.10 1019.82 1019.78 1019.94 1019.98 1020.02 1020.10 1020.10 1020.14 1020.66 1021.42 1021.74
1014.90 1015.06 1015.42 1015.74 1015.90 1016.06 1016.26 1016.34 1016.50 1016.82 1017.10 1017.26 1017.82 1018.22 1018.38 1018.38 1017.78 1017.98 1018.06 1018.14 1018.34 1018.54 1018.58 1018.74 1018.90 1018.98 1019.10 1019.10 1019.22 1019.22 1019.14 1019.30 1019.46 1019.70 1019.58 1019.54 1019.58 1019.70 1019.66 1019.62 1019.58 1019.58 1019.58 1019.42 1019.54 1019.62 1019.66 1019.82 1020.06 1020.06 1020.10 1019.86 1019.82 1019.90 1019.78 1019.82 1020.02 1020.22 1020.34 1020.82 1021.50 1021.74
1014.98 1015.10 1015.42 1015.50 1015.86 1016.10 1016.10 1016.18 1016.46 1016.74 1017.10 1017.46 1017.62 1018.18 1018.42 1018.02 1017.98 1018.06 1018.10 1018.26 1018.50 1018.62 1018.78 1018.98 1019.06 1019.10 1019.22 1019.02 1019.22 1019.22 1019.26 1019.30 1019.46 1019.54 1019.50 1019.54 1019.86 1019.82 1019.78 1019.82 1019.70 1019.66 1019.62 1019.62 1019.66 1019.74 1019.78 1019.74 1019.58 1020.10 1019.98 1019.86 1019.78 1019.86 1019.82 1019.86 1020.02 1020.14 1020.50 1020.94 1021.46 1021.78
1014.86 1015.14 1015.38 1015.46 1015.86 1015.94 1015.98 1016.22 1016.54 1017.02 1017.10 1017.30 1017.54 1018.06 1018.70 1017.94 1017.98 1018.18 1018.22 1018.30 1018.42 1018.58 1018.86 1018.98 1019.02 1019.10 1019.18 1019.06 1019.26 1019.26 1019.22 1019.34 1019.42 1019.58 1019.66 1019.66 1020.02 1019.94 1019.86 1019.86 1019.86 1019.82 1019.70 1019.66 1019.74 1019.78 1019.66 1019.62 1019.70 1019.54 1019.58 1019.78 1019.90 1019.86 1019.90 1019.82 1020.02 1020.22 1020.42 1021.22 1021.34 1021.78
1015.26 1015.30 1015.46 1015.62 1015.90 1015.86 1016.06 1016.26 1016.66 1016.86 1017.02 1017.42 1017.38 1018.22 1017.90 1017.82 1017.98 1018.10 1018.18 1018.34 1018.58 1018.82 1018.78 1018.82 1018.94 1018.94 1018.98 1019.22 1019.34 1019.42 1019.38 1019.54 1019.62 1019.70 1019.86 1019.98 1019.94 1020.06 1020.06 1019.98 1019.98 1019.86 1019.78 1019.78 1019.86 1019.90 1019.74 1019.66 1019.62 1019.54 1019.58 1019.70 1019.82 1019.90 1019.98 1020.02 1020.18 1020.38 1020.38 1020.66 1021.34 1021.66
1015.38 1015.22 1015.50 1015.78 1016.06 1016.14 1016.22 1016.46 1016.66 1016.90 1017.06 1017.42 1017.38 1017.74 1017.62 1017.70 1017.82 1018.02 1018.18 1018.30 1018.58 1018.70 1018.70 1018.74 1018.86 1018.82 1019.06 1019.34 1019.42 1019.50 1019.62 1019.74 1019.94 1019.94 1020.02 1020.02 1019.78 1019.82 1019.94 1019.98 1019.94 1019.82 1019.74 1019.94 1019.90 1019.98 1019.90 1019.94 1019.62 1019.62 1019.54 1019.62 1019.82 1019.66 1019.98 1020.06 1020.34 1020.46 1020.50 1020.62 1021.06 1021.66
1015.62 1015.54 1015.98 1016.14 1016.14 1016.34 1016.30 1016.46 1016.66 1016.78 1017.30 1017.42 1017.38 1017.54 1017.62 1017.70 1017.86 1017.98 1018.14 1018.34 1018.50 1018.58 1018.66 1018.70 1018.82 1018.90 1018.98 1019.18 1019.30 1019.46 1019.62 1019.70 1019.90 1019.90 1019.78 1019.86 1019.78 1019.86 1019.78 1019.82 1019.86 1019.94 1019.98 1019.94 1020.06 1020.02 1019.90 1019.86 1019.62 1019.46 1019.62 1019.50 1019.78 1019.82 1019.90 1020.10 1020.18 1020.34 1020.50 1020.66 1020.90 1021.94
1015.78 1015.86 1016.30 1016.22 1016.38 1016.46 1016.50 1016.50 1016.74 1016.82 1017.02 1017.26 1017.58 1017.58 1017.66 1017.82 1018.02 1018.02 1018.14 1018.34 1018.46 1018.62 1018.62 1018.74 1018.82 1018.94 1019.02 1019.14 1019.30 1019.42 1019.50 1019.70 1019.90 1019.82 1019.78 1019.82 1019.90 1019.90 1019.82 1019.90 1020.06 1020.14 1020.18 1020.14 1020.10 1020.06 1020.10 1020.10 1019.90 1019.58 1019.58 1019.82 1019.94 1019.98 1020.18 1020.30 1020.46 1020.46 1020.62 1020.74 1020.82 1022.18
1015.94 1015.98 1016.02 1016.26 1016.38 1016.46 1016.46 1016.58 1016.86 1016.94 1017.10 1017.50 1017.66 1017.66 1017.82 1017.94 1018.06 1018.10 1018.18 1018.30 1018.46 1018.58 1018.62 1018.78 1018.90 1018.94 1019.06 1019.10 1019.26 1019.38 1019.50 1019.66 1019.70 1019.74 1019.82 1019.86 1019.98 1020.02 1019.98 1020.10 1020.18 1020.10 1020.18 1020.10 1020.26 1020.30 1020.14 1020.14 1020.22 1020.30 1019.94 1019.98 1020.10 1020.22 1020.42 1020.46 1020.58 1020.70 1020.82 1020.86 1021.10 1022.18
1016.26 1016.30 1016.10 1016.22 1016.42 1016.46 1016.58 1016.62 1016.82 1016.94 1017.26 1017.62 1017.70 1017.78 1017.82 1017.82 1018.02 1018.10 1018.18 1018.38 1018.46 1018.54 1018.66 1018.70 1018.78 1019.02 1019.02 1019.14 1019.26 1019.42 1019.54 1019.66 1019.70 1019.82 1019.90 1019.98 1020.06 1020.06 1020.10 1020.10 1020.18 1020.10 1020.26 1020.26 1020.42 1020.38 1020.34 1020.22 1020.14 1020.18 1020.26 1020.34 1020.62 1020.86 1020.86 1020.74 1020.78 1020.98 1021.86 1022.02 1022.38 1022.74
1016.42 1016.06 1016.42 1016.54 1016.66 1016.70 1016.70 1016.74 1016.90 1017.02 1017.42 1017.62 1017.70 1017.74 1017.70 1017.74 1017.98 1018.02 1018.06 1018.30 1018.42 1018.58 1018.66 1018.70 1018.70 1018.90 1019.06 1019.10 1019.30 1019.42 1019.58 1019.58 1019.74 1019.94 1020.02 1019.98 1020.02 1020.14 1020.14 1020.26 1020.10 1020.10 1020.26 1020.22 1020.26 1020.38 1020.42 1020.42 1020.38 1020.54 1020.78 1020.78 1020.94 1021.10 1021.06 1021.10 1021.02 1021.18 1021.58 1021.94 1022.18 1022.46
1016.78 1016.50 1016.74 1016.78 1016.86 1016.86 1016.86 1016.86 1016.94 1017.26 1017.50 1017.62 1017.62 1017.70 1017.78 1017.74 1017.78 1017.82 1017.94 1018.14 1018.38 1018.58 1018.66 1018.70 1018.70 1018.74 1019.02 1018.98 1019.10 1019.30 1019.38 1019.50 1019.82 1019.94 1019.98 1020.14 1020.10 1020.22 1020.26 1020.34 1020.30 1020.30 1020.54 1020.50 1020.46 1020.62 1020.54 1020.86 1020.94 1021.14 1021.22 1021.18 1021.22 1021.30 1021.22 1021.10 1021.58 1021.98 1021.94 1021.86 1022.10 1022.50
1016.94 1016.62 1016.74 1016.90 1016.94 1017.02 1016.98 1017.02 1017.14 1017.34 1017.50 1017.62 1017.70 1017.70 1017.66 1017.54 1017.54 1017.74 1017.82 1017.98 1018.30 1018.54 1018.66 1018.70 1018.66 1018.70 1018.82 1018.78 1018.78 1019.06 1019.22 1019.62 1019.74 1019.86 1020.10 1020.22 1020.18 1020.10 1020.30 1020.50 1020.54 1020.38 1020.26 1020.62 1020.58 1020.78 1020.82 1020.90 1021.10 1021.26 1021.18 1021.26 1021.38 1021.34 1021.30 1021.30 1021.46 1021.98 1021.78 1022.38 1022.22 1022.06
1016.62 1016.54 1016.50 1016.78 1017.02 1017.10 1017.02 1017.02 1017.26 1017.46 1017.58 1017.74 1017.62 1017.54 1017.42 1017.42 1017.58 1017.70 1017.82 1017.94 1018.22 1018.46 1018.58 1018.62 1018.66 1018.66 1018.78 1018.70 1018.66 1018.98 1019.26 1019.58 1019.70 1019.90 1020.10 1020.18 1020.18 1020.14 1020.22 1020.34 1020.66 1020.58 1020.46 1020.62 1020.70 1020.94 1021.02 1021.02 1021.10 1021.30 1021.34 1021.42 1021.34 1021.22 1021.34 1021.34 1021.54 1022.10 1022.30 1022.50 1022.34 1022.26
1016.30 1016.46 1016.42 1016.46 1016.82 1017.26 1016.98 1017.22 1017.54 1017.62 1018.02 1017.70 1017.54 1017.58 1017.42 1017.46 1017.54 1017.62 1017.78 1017.86 1018.18 1018.34 1018.50 1018.54 1018.62 1018.66 1018.74 1018.70 1018.82 1019.10 1019.34 1019.54 1019.66 1019.90 1020.14 1020.14 1020.26 1020.30 1020.38 1020.42 1020.70 1020.98 1020.86 1020.62 1020.74 1020.90 1021.02 1021.10 1021.34 1021.42 1021.46 1021.42 1021.34 1021.50 1021.38 1021.42 1021.58 1022.30 1022.30 1022.30 1022.22 1022.18
1016.06 1016.10 1016.30 1016.54 1016.86 1016.98 1017.18 1017.62 1017.90 1018.30 1018.34 1018.02 1017.50 1017.66 1017.62 1017.54 1017.62 1017.70 1017.62 1017.78 1018.06 1018.30 1018.30 1018.50 1018.54 1018.58 1018.66 1018.70 1018.86 1019.10 1019.38 1019.46 1019.58 1019.74 1020.06 1020.22 1020.26 1020.42 1020.62 1020.70 1020.86 1020.98 1021.22 1021.18 1020.90 1020.98 1021.06 1021.30 1021.50 1021.66 1021.90 1021.86 1021.70 1021.46 1021.42 1021.42 1021.54 1022.26 1022.34 1022.06 1021.94 1021.98
1015.94 1015.98 1016.18 1016.70 1016.90 1016.94 1017.34 1017.74 1018.10 1018.34 1018.62 1018.86 1018.06 1017.54 1017.74 1017.66 1017.74 1017.62 1017.58 1017.70 1018.02 1018.22 1018.18 1018.42 1018.46 1018.50 1018.62 1018.74 1018.86 1019.06 1019.26 1019.42 1019.50 1019.70 1019.94 1020.18 1020.22 1020.34 1020.46 1020.58 1020.74 1020.86 1021.18 1021.38 1021.38 1021.10 1021.26 1021.18 1021.58 1021.86 1021.78 1021.90 1021.82 1021.66 1021.82 1021.62 1021.62 1021.66 1021.82 1021.78 1021.82 1021.86
1015.70 1015.78 1015.94 1016.34 1016.58 1016.70 1016.90 1017.42 1017.66 1018.14 1018.50 1018.42 1017.54 1017.58 1017.74 1017.74 1017.74 1017.66 1017.74 1017.86 1017.98 1018.06 1018.18 1018.30 1018.38 1018.46 1018.54 1018.66 1018.86 1019.02 1019.26 1019.46 1019.62 1019.78 1019.90 1019.98 1020.26 1020.42 1020.54 1020.66 1020.78 1021.10 1020.82 1021.14 1021.50 1021.38 1021.34 1021.22 1021.70 1021.74 1022.30 1022.34 1022.30 1022.30 1021.78 1021.62 1021.74 1021.78 1021.82 1021.90 1021.86 1022.06
1015.50 1015.62 1015.70 1015.94 1016.10 1016.34 1016.58 1017.10 1017.46 1017.70 1018.02 1017.50 1016.82 1016.98 1017.18 1017.38 1017.46 1017.70 1017.90 1017.94 1018.02 1018.10 1018.18 1018.22 1018.34 1018.42 1018.58 1018.62 1018.78 1018.98 1019.26 1019.38 1019.50 1019.66 1020.02 1020.26 1020.42 1020.62 1020.58 1020.66 1020.74 1020.90 1021.14 1021.10 1021.30 1021.38 1021.38 1021.14 1021.58 1021.50 1021.42 1022.02 1022.90 1023.10 1022.58 1021.90 1021.90 1022.10 1022.22 1022.10 1022.10 1022.14
1015.34 1015.38 1015.54 1015.66 1015.94 1016.14 1016.54 1016.82 1017.14 1017.62 1017.22 1017.10 1017.46 1016.90 1017.14 1017.34 1017.58 1017.70 1018.06 1017.98 1017.98 1018.10 1018.10 1018.18 1018.18 1018.26 1018.34 1018.50 1018.74 1018.98 1019.14 1019.26 1019.50 1019.58 1019.86 1020.22 1020.50 1020.54 1020.58 1020.70 1020.78 1020.90 1020.94 1021.50 1021.46 1021.62 1021.26 1021.34 1021.18 1021.54 1022.94 1022.26 1022.18 1022.54 1022.86 1022.78 1022.78 1022.82 1022.58 1022.54 1022.38 1023.22
1014.90 1015.18 1015.30 1015.58 1015.82 1016.14 1016.70 1017.14 1017.18 1017.66 1016.86 1016.90 1016.86 1017.18 1017.46 1017.78 1017.74 1017.82 1017.94 1018.10 1018.14 1018.10 1018.14 1018.18 1018.18 1018.18 1018.26 1018.54 1018.70 1018.86 1019.06 1019.26 1019.46 1019.58 1019.74 1019.90 1020.18 1020.30 1020.38 1020.54 1020.74 1020.94 1021.02 1021.22 1021.50 1021.62 1021.58 1021.42 1021.30 1021.50 1022.54 1021.82 1022.38 1023.14 1022.50 1022.22 1022.34 1023.22 1023.18 1023.02 1022.74 1023.10
1014.66 1014.98 1015.38 1015.62 1015.82 1016.14 1016.82 1016.98 1017.10 1017.42 1017.78 1017.74 1018.38 1017.82 1017.82 1017.94 1017.90 1017.98 1018.10 1018.02 1017.98 1018.10 1018.10 1018.18 1018.18 1018.22 1018.26 1018.46 1018.70 1018.78 1018.98 1019.18 1019.42 1019.54 1019.62 1019.74 1019.90 1020.06 1020.30 1020.46 1020.70 1020.82 1021.06 1020.98 1021.18 1021.46 1021.66 1021.58 1021.38 1021.38 1021.54 1021.54 1021.74 1023.10 1022.86 1022.06 1021.82 1024.30 1023.34 1022.74 1023.06 1023.22
1014.78 1015.14 1015.50 1015.74 1016.02 1016.38 1016.94 1017.22 1017.14 1017.02 1017.14 1017.42 1017.62 1017.50 1016.98 1017.14 1017.42 1017.50 1017.54 1017.98 1018.02 1018.14 1018.10 1018.30 1018.30 1018.26 1018.42 1018.54 1018.66 1018.78 1018.98 1019.06 1019.26 1019.42 1019.54 1019.66 1019.94 1020.10 1020.18 1020.22 1020.42 1020.62 1020.78 1020.82 1021.02 1021.30 1021.58 1021.62 1021.58 1021.62 1021.46 1021.38 1021.22 1021.06 1020.90 1021.94 1022.50 1023.30 1023.74 1023.54 1023.70 1023.70
1015.22 1015.62 1015.66 1015.90 1016.30 1016.50 1016.70 1016.90 1017.14 1017.26 1017.26 1017.58 1017.18 1017.06 1016.98 1017.22 1017.18 1017.34 1017.74 1017.98 1018.06 1018.26 1018.22 1018.26 1018.42 1018.42 1018.50 1018.62 1018.74 1018.90 1018.98 1019.10 1019.30 1019.30 1019.42 1019.62 1019.78 1019.90 1019.98 1020.10 1020.34 1020.38 1020.54 1020.62 1020.90 1021.06 1021.34 1021.38 1021.70 1021.74 1021.58 1021.54 1021.42 1021.26 1020.94 1021.30 1021.10 1021.34 1022.42 1023.38 1024.42 1023.70
1016.22 1016.38 1016.18 1016.34 1016.70 1016.86 1016.78 1016.98 1017.10 1017.58 1017.30 1016.54 1016.22 1016.54 1016.82 1016.98 1017.22 1017.46 1017.98 1018.10 1018.18 1018.26 1018.38 1018.42 1018.42 1018.58 1018.58 1018.58 1018.82 1018.94 1019.06 1019.22 1019.30 1019.34 1019.30 1019.46 1019.58 1019.74 1019.98 1020.30 1020.62 1020.66 1020.78 1020.82 1020.82 1020.94 1021.18 1021.42 1021.38 1021.10 1021.78 1022.22 1021.34 1021.34 1021.42 1021.34 1021.30 1021.14 1021.50 1022.70 1023.70 1024.18
1016.38 1016.50 1016.82 1016.66 1016.78 1016.86 1017.02 1017.30 1017.66 1017.74 1017.74 1017.62 1016.46 1016.62 1016.82 1017.22 1017.54 1017.70 1018.18 1018.38 1018.38 1018.46 1018.54 1018.70 1018.70 1018.62 1018.66 1018.66 1018.78 1018.94 1019.10 1019.22 1019.30 1019.30 1019.22 1019.34 1019.58 1019.82 1020.06 1020.26 1020.42 1020.62 1020.74 1020.94 1020.86 1021.02 1021.22 1021.34 1021.54 1021.54 1020.98 1021.42 1021.46 1021.50 1021.30 1021.58 1021.74 1021.50 1021.58 1022.34 1023.82 1023.66
1015.54 1015.90 1016.46 1016.82 1016.90 1017.34 1017.54 1017.58 1018.22 1018.46 1018.38 1017.50 1016.70 1016.82 1017.18 1017.54 1017.62 1017.86 1018.18 1018.42 1018.50 1018.54 1018.54 1018.70 1018.78 1018.86 1018.78 1018.70 1018.90 1018.90 1019.02 1019.18 1019.26 1019.38 1019.38 1019.50 1019.62 1019.70 1019.90 1020.10 1020.34 1020.62 1020.74 1020.86 1020.94 1021.02 1021.18 1021.66 1021.62 1021.54 1021.18 1021.50 1021.66 1021.62 1021.78 1021.74 1021.74 1021.82 1022.02 1022.10 1022.50 1023.06
1016.34 1016.42 1016.46 1017.10 1017.34 1017.46 1017.58 1017.70 1017.98 1017.74 1017.18 1016.62 1016.62 1016.86 1017.22 1017.58 1017.74 1017.90 1018.18 1018.42 1018.46 1018.62 1018.74 1018.78 1018.86 1018.94 1019.02 1018.94 1019.06 1019.14 1019.18 1019.26 1019.34 1019.42 1019.50 1019.42 1019.50 1019.54 1019.70 1019.90 1020.18 1020.42 1020.54 1020.70 1020.86 1020.98 1021.06 1021.30 1021.38 1021.70 1021.22 1021.06 1021.50 1021.18 1021.22 1021.22 1021.30 1021.54 1021.82 1022.10 1022.22 1022.94
1016.30 1016.74 1016.82 1016.86 1017.22 1017.50 1017.58 1017.70 1017.86 1017.62 1016.74 1016.50 1016.58 1016.74 1017.06 1017.42 1017.62 1017.82 1018.02 1018.34 1018.50 1018.70 1018.82 1019.02 1019.02 1019.06 1019.14 1019.14 1019.10 1019.30 1019.34 1019.38 1019.42 1019.46 1019.46 1019.50 1019.58 1019.62 1019.74 1019.90 1020.10 1020.30 1020.50 1020.78 1020.78 1020.94 1021.02 1021.22 1021.30 1021.42 1021.34 1021.22 1021.14 1021.02 1021.18 1021.10 1021.14 1021.54 1021.66 1021.82 1022.18 1023.06
1015.86 1015.94 1016.38 1016.74 1016.86 1016.58 1016.58 1016.82 1017.54 1017.62 1016.70 1016.58 1016.70 1016.82 1016.94 1017.26 1017.50 1017.62 1017.82 1018.14 1018.42 1018.58 1018.78 1018.94 1019.02 1019.06 1019.02 1019.02 1019.06 1019.18 1019.30 1019.38 1019.42 1019.50 1019.58 1019.62 1019.66 1019.70 1019.78 1019.86 1020.10 1020.30 1020.46 1020.54 1020.58 1020.94 1020.94 1021.10 1021.22 1021.26 1021.22 1021.34 1021.18 1021.10 1021.22 1021.22 1021.34 1021.34 1021.82 1022.22 1022.74 1022.98
1015.42 1015.34 1015.58 1015.94 1016.26 1016.30 1016.38 1016.62 1017.02 1017.70 1017.66 1016.78 1016.90 1016.94 1017.02 1017.10 1017.38 1017.54 1017.66 1018.06 1018.22 1018.38 1018.62 1018.74 1018.86 1018.86 1018.98 1019.10 1019.18 1019.26 1019.38 1019.54 1019.62 1019.70 1019.70 1019.74 1019.78 1019.86 1019.90 1019.86 1020.10 1020.26 1020.34 1020.42 1020.62 1020.74 1020.86 1021.06 1021.30 1021.34 1021.38 1021.26 1021.34 1021.30 1021.42 1021.30 1021.38 1021.18 1021.18 1021.70 1022.14 1022.54
1014.90 1015.34 1015.58 1015.70 1015.82 1016.10 1016.38 1016.50 1016.82 1017.14 1017.94 1018.06 1017.02 1017.02 1017.02 1017.14 1017.34 1017.42 1017.58 1017.86 1018.18 1018.30 1018.38 1018.58 1018.66 1018.94 1019.10 1019.10 1019.26 1019.38 1019.46 1019.58 1019.66 1019.74 1019.78 1019.82 1019.82 1019.86 1020.02 1020.14 1020.26 1020.30 1020.42 1020.34 1020.62 1020.78 1020.82 1021.02 1021.18 1021.30 1021.42 1021.30 1021.30 1021.18 1021.42 1021.34 1021.22 1021.26 1021.22 1021.58 1021.86 1022.10
1014.70 1014.78 1014.98 1015.18 1015.42 1015.94 1016.26 1016.50 1016.66 1016.82 1017.22 1018.14 1017.46 1017.18 1017.22 1017.38 1017.50 1017.54 1017.66 1017.86 1018.10 1018.22 1018.38 1018.58 1018.86 1019.02 1019.22 1019.14 1019.26 1019.30 1019.46 1019.66 1019.82 1019.82 1019.86 1019.90 1019.90 1019.94 1020.02 1020.14 1020.34 1020.50 1020.62 1020.58 1020.66 1020.74 1020.70 1020.78 1021.06 1021.18 1021.18 1021.42 1021.26 1021.26 1021.38 1021.42 1021.30 1021.54 1021.66 1021.74 1021.82 1022.10
Wind_Speed
14 15 13 13 12 12 14 15 14 15 15 14 13 14 12 12 12 12 12 12 9 9 9 9 10 9 12 10 11 11 11 11 12 11 11 10 9 8 7 6 5 5 4 5 6 7 8 8 9 8 8 7 8 7 5 3 5 5 5 6 8 8
13 14 13 11 9 10 11 13 13 14 13 13 14 13 11 10 11 10 11 10 8 7 7 7 8 10 8 10 11 10 11 10 11 11 10 10 9 8 8 6 4 5 4 5 9 5 7 8 9 8 8 9 8 2 3 4 4 6 7 7 8 8
13 14 13 11 9 10 12 10 12 12 11 13 12 10 8 9 9 8 10 8 7 7 7 7 8 9 9 11 11 11 11 10 10 10 10 9 9 8 7 5 3 3 4 5 5 4 5 6 7 9 9 8 3 3 4 4 4 4 6 9 8 7
14 14 12 10 10 10 10 10 10 10 9 10 8 6 8 7 4 8 7 7 7 7 7 6 10 14 13 9 9 10 11 11 10 10 12 9 9 8 8 5 3 3 7 7 5 5 5 5 6 6 6 6 3 4 4 4 4 4 4 9 9 8
13 13 12 10 11 10 10 9 9 9 10 10 8 5 4 4 8 8 8 7 8 7 7 7 7 7 6 7 7 7 8 7 7 7 10 6 7 8 9 7 7 7 6 5 5 4 4 4 5 6 6 4 4 5 4 3 4 4 5 7 8 7
13 13 12 10 10 9 9 8 9 9 9 8 9 5 4 7 8 8 7 7 8 8 7 7 7 6 6 6 6 5 4 4 5 6 5 5 4 4 4 5 5 5 4 3 3 3 4 4 4 4 5 4 5 5 4 4 5 4 5 7 9 8
11 12 13 11 9 9 8 8 8 9 9 8 8 8 5 6 7 7 7 7 7 7 7 6 6 6 6 5 5 4 4 4 4 4 4 4 4 4 3 4 3 3 2 3 4 4 4 5 5 4 5 5 5 4 3 4 5 5 6 6 9 9
10 11 10 11 11 10 8 8 8 9 8 8 7 6 7 7 8 7 7 7 7 7 7 7 6 6 5 5 5 4 4 4 3 4 3 4 5 4 3 3 3 3 4 4 4 3 3 5 4 5 5 4 4 4 3 3 4 4 6 6 8 9
9 11 10 10 10 8 8 8 8 8 8 8 7 6 7 7 7 7 7 7 6 6 6 6 6 6 5 5 5 4 4 4 2 3 4 3 3 4 3 3 3 3 2 3 3 3 3 3 4 3 3 4 4 4 4 4 4 4 4 6 7 9
10 11 11 10 8 8 8 8 8 8 7 6 7 7 7 7 7 6 7 7 7 6 6 5 5 5 6 6 6 6 5 4 4 3 3 4 3 3 3 3 3 3 4 3 3 2 2 4 4 3 3 4 4 4 3 4 4 4 4 4 6 9
8 6 7 7 9 8 8 8 8 8 9 8 7 6 7 6 6 6 6 7 8 6 5 5 5 5 5 6 6 6 5 5 5 4 4 3 2 1 2 2 1 1 2 2 2 3 2 2 2 4 3 4 4 2 3 3 4 4 4 4 5 7
8 6 9 9 7 8 7 8 8 8 8 7 7 7 7 6 6 6 7 8 7 6 5 5 5 5 5 5 5 5 5 5 5 4 3 3 3 2 2 3 3 2 2 1 2 2 2 2 2 1 3 2 3 3 3 3 3 4 3 4 4 9
9 9 10 10 8 8 7 7 8 7 7 7 7 7 6 6 6 6 7 7 7 6 5 5 5 5 5 4 4 5 4 4 4 4 3 4 4 3 2 3 3 2 2 2 2 2 2 2 2 2 0 3 1 2 2 3 3 4 4 5 3 9
8 11 10 9 8 8 7 7 7 7 7 7 6 7 7 7 6 6 7 7 7 6 5 5 5 6 5 4 4 4 4 4 3 4 3 3 4 3 3 3 3 3 3 3 3 2 2 3 3 3 2 3 2 2 1 2 3 2 3 5 4 5
9 11 7 7 9 8 7 7 7 6 7 7 7 7 7 7 7 6 7 7 6 6 6 6 6 6 6 4 4 4 4 4 4 4 4 3 3 3 3 3 3 3 3 2 2 3 2 2 2 4 3 1 3 3 2 2 1 1 6 3 2 5
9 9 8 7 7 7 8 7 6 6 7 8 8 7 7 7 7 7 7 6 7 6 6 6 6 6 6 5 5 5 4 4 5 4 3 3 3 3 3 2 2 2 3 3 3 3 3 3 3 4 2 2 2 2 3 3 4 4 4 2 3 4
12 10 10 9 7 7 7 7 6 7 7 8 7 7 7 7 7 7 6 6 7 6 6 6 6 6 5 6 5 5 5 5 5 4 4 4 4 3 4 4 3 2 2 3 3 3 3 3 4 4 3 3 3 3 2 2 2 6 3 4 3 2
8 9 8 9 8 7 7 7 6 6 7 7 7 7 7 7 7 6 6 6 7 6 6 6 6 6 4 5 5 5 6 6 5 4 4 4 4 3 3 4 4 2 1 3 4 4 4 3 3 3 3 3 3 3 3 3 4 4 4 3 3 3
11 10 9 10 9 7 7 6 5 5 5 6 7 7 6 7 6 6 6 7 7 6 6 7 6 6 5 5 5 5 6 7 5 5 4 4 4 4 3 4 4 3 1 2 2 3 3 4 4 4 4 4 4 5 3 3 6 3 3 3 3 2
12 12 10 8 7 8 7 6 6 4 8 7 9 7 6 6 5 6 6 7 7 6 7 6 6 6 6 5 5 5 6 6 6 5 5 4 4 4 4 5 5 5 5 4 3 4 4 5 5 6 5 5 5 4 5 4 4 7 4 3 3 2
12 12 10 9 9 8 9 7 4 4 7 6 7 8 7 6 6 5 7 7 7 6 7 7 7 7 6 5 5 5 6 6 5 5 5 4 3 4 5 5 5 5 6 6 5 4 5 4 6 5 5 6 5 5 5 4 4 4 3 2 2 3
10 12 11 11 9 9 9 6 6 8 5 6 9 8 7 7 6 6 6 6 6 7 7 7 6 6 6 6 5 5 5 5 5 4 4 4 5 4 5 5 5 5 5 5 5 5 5 5 4 4 5 5 6 4 4 5 4 4 4 2 2 4
10 11 12 12 10 10 8 7 7 6 9 10 7 7 7 6 6 6 6 6 6 6 7 7 7 7 6 6 5 5 6 5 5 4 5 5 5 5 5 6 6 5 5 4 4 4 5 4 2 3 4 5 5 4 4 4 4 4 5 2 2 2
10 11 11 12 11 9 8 8 8 7 10 7 8 8 6 6 6 7 7 7 6 6 6 6 7 7 6 6 6 6 6 6 5 4 4 5 5 5 5 4 4 4 5 5 5 6 4 3 3 5 4 5 6 6 6 4 4 2 4 3 3 8
13 13 12 11 13 10 8 8 9 9 5 5 6 8 7 7 6 7 7 7 7 6 6 6 6 6 6 6 6 6 6 6 6 5 5 5 6 6 6 5 5 5 5 4 6 5 5 3 2 3 5 2 1 1 2 5 4 5 4 3 5 6
13 13 12 12 13 10 10 8 8 8 8 6 7 7 9 8 8 8 8 6 7 7 6 6 6 6 6 6 6 6 6 6 6 6 5 4 4 5 6 6 5 4 5 4 3 5 5 4 3 0 3 3 0 0 1 6 6 4 2 2 6 5
11 10 9 11 11 8 7 7 9 10 10 11 9 9 7 8 8 7 7 8 7 6 6 6 5 5 5 5 5 5 5 5 5 5 5 4 5 5 5 6 6 5 5 5 4 4 4 5 4 2 1 2 2 2 1 4 2 7 5 3 7 6
9 7 8 9 8 8 10 10 10 8 9 7 10 9 9 8 8 8 8 8 7 6 6 6 5 6 6 6 5 5 5 5 5 5 5 5 5 5 5 4 4 3 4 3 4 3 4 4 5 5 3 4 3 0 1 3 4 3 5 5 5 5
6 3 7 8 7 10 8 9 7 9 8 7 8 8 8 8 8 8 9 7 7 7 6 6 6 5 5 6 5 5 5 5 4 5 5 5 5 5 5 5 5 4 4 4 3 2 2 4 5 4 6 4 5 3 3 2 0 4 3 6 7 7
9 7 1 8 8 10 9 6 6 2 3 5 8 8 8 8 8 8 9 8 7 7 6 5 5 5 5 5 5 5 5 6 5 4 4 4 5 5 5 5 5 4 3 4 3 3 3 2 2 2 4 4 5 4 3 2 2 2 0 7 6 6
11 10 12 10 6 1 4 7 8 11 13 13 11 10 9 9 8 8 9 9 8 6 6 6 5 4 4 5 5 5 4 5 5 4 4 4 4 5 5 5 5 5 4 4 4 3 2 2 3 3 4 3 5 5 3 4 4 3 2 2 5 6
6 6 9 6 3 6 8 7 6 10 13 10 11 9 10 9 9 9 9 8 7 6 6 6 5 5 4 5 5 5 4 4 4 4 4 4 4 4 4 5 5 5 5 4 3 3 3 3 3 3 4 1 2 2 1 2 4 4 2 3 4 6
9 7 7 8 7 5 8 8 9 11 9 9 9 10 9 9 9 8 8 8 7 7 6 6 6 6 5 7 5 6 5 4 4 3 4 3 3 3 3 4 5 5 5 5 4 4 3 3 4 4 3 2 2 3 3 1 3 3 2 3 4 6
12 12 8 10 10 12 9 6 5 8 6 8 9 8 8 8 8 7 7 8 7 6 6 7 7 6 6 7 6 5 5 4 4 4 4 3 3 3 3 4 5 5 6 4 4 4 3 4 4 4 3 4 4 4 2 2 3 3 4 5 5 6
16 14 14 14 14 11 7 7 7 5 6 5 7 7 7 8 8 8 7 8 7 6 7 7 7 7 7 7 6 6 5 5 5 4 4 4 3 3 2 3 4 5 4 4 5 4 4 5 5 5 4 4 4 3 3 4 4 4 5 5 5 6
15 16 15 14 13 11 7 7 7 6 2 9 6 7 6 7 8 8 8 8 7 7 7 7 7 7 7 7 7 6 6 6 5 5 5 5 4 4 4 4 4 4 5 4 5 5 4 5 4 5 6 4 5 4 3 3 4 4 4 4 5 5
14 13 15 15 14 12 11 9 10 10 8 7 9 9 7 8 9 8 8 7 8 7 7 6 6 6 6 7 7 6 6 6 5 5 5 4 4 4 4 5 5 6 6 5 5 5 4 4 4 5 5 6 4 4 3 3 3 4 4 3 4 5
Wind_Direction
152 148 145 144 146 149 139 138 140 138 139 137 131 133 130 129 134 135 140 135 142 146 141 135 142 127 131 129 117 130 136 128 125 126 124 123 128 126 125 123 112 100 106 110 114 117 122 149 150 149 150 164 188 219 68 85 92 98 97 103 93 92
145 147 147 147 144 144 146 152 151 149 148 140 137 136 144 144 145 142 137 149 148 143 142 142 135 124 115 120 123 138 134 126 125 127 122 127 128 128 128 126 132 119 125 139 157 150 141 149 159 153 162 178 211 113 114 90 91 95 107 91 94 101
148 150 150 144 145 145 151 154 153 152 140 139 143 148 139 156 147 150 155 149 144 142 140 136 142 137 135 127 125 127 124 120 120 119 122 119 116 112 114 124 126 133 122 189 209 163 150 150 162 167 171 199 209 120 96 98 99 95 83 84 89 96
152 151 152 150 147 149 152 156 153 147 139 141 146 153 164 146 172 162 148 144 142 137 134 124 100 107 119 130 121 124 122 123 125 130 133 133 127 121 124 132 146 166 192 189 169 179 171 153 158 176 192 197 158 131 140 129 110 94 99 105 98 124
158 153 153 147 151 154 153 155 150 147 150 149 157 159 159 222 176 147 145 145 140 141 142 136 144 147 142 137 141 146 158 160 153 144 187 144 154 148 179 149 155 203 188 198 180 179 166 152 175 180 189 191 156 157 144 130 107 124 104 101 117 139
159 155 148 152 155 146 155 155 152 148 148 160 151 152 176 224 149 151 148 144 142 148 148 143 152 146 141 144 152 154 155 137 140 141 172 152 143 155 153 159 178 180 178 185 176 174 180 184 183 188 190 184 165 167 160 138 121 116 110 116 128 138
168 154 154 154 149 157 161 152 150 151 156 161 165 169 177 174 151 154 152 148 152 152 146 149 155 152 150 160 143 152 141 146 145 141 144 134 128 138 139 140 166 159 148 156 178 161 193 195 206 158 208 184 167 166 158 138 135 133 122 124 128 143
158 155 162 155 158 162 158 149 146 146 161 160 165 144 183 179 147 153 155 154 155 151 153 158 158 158 157 148 147 140 141 139 137 130 127 131 143 143 140 137 136 141 162 153 154 181 181 183 217 201 175 174 170 153 172 138 128 124 124 138 140 145
151 161 159 160 163 162 154 153 148 155 163 162 167 160 190 144 154 155 159 152 149 151 159 161 160 155 153 146 142 148 147 133 137 129 147 144 156 145 143 148 149 156 141 141 142 174 187 175 198 201 185 171 180 153 168 148 135 130 125 135 139 133
169 168 158 158 163 159 158 155 157 159 141 180 160 172 155 160 151 161 157 153 155 164 166 162 157 156 152 152 154 154 149 145 148 149 174 179 160 167 148 150 167 175 143 162 152 132 201 170 202 168 196 169 182 175 149 164 137 146 135 141 134 135
163 166 139 186 160 158 164 161 157 157 155 184 152 156 166 155 156 160 156 156 161 165 167 162 159 162 155 156 159 160 158 154 159 173 184 164 146 161 155 122 102 107 120 140 135 148 208 175 179 172 159 187 158 168 165 146 163 147 158 141 142 117
156 167 168 177 156 157 170 161 156 162 162 157 156 167 163 157 157 156 157 161 163 164 171 160 163 160 159 160 163 163 158 163 158 172 180 165 162 166 167 113 111 102 93 153 150 150 150 175 188 123 162 120 156 176 147 155 166 172 154 152 150 121
173 167 172 162 162 168 168 158 158 163 158 152 165 167 162 161 157 157 160 164 161 162 164 159 161 159 160 168 164 163 165 168 163 165 158 165 158 171 178 157 140 157 173 158 162 151 165 147 135 87 249 117 129 102 118 158 167 186 155 168 133 103
173 183 170 162 167 172 169 160 162 163 151 161 166 170 166 164 161 161 163 164 165 159 166 162 165 162 169 169 166 162 158 159 154 148 156 173 179 180 188 180 165 173 159 174 153 158 169 154 135 146 101 88 80 74 169 149 183 135 109 37 46 73
191 179 157 159 167 169 167 164 166 160 158 168 167 178 172 162 165 167 166 165 169 163 172 172 173 169 173 174 166 160 167 157 148 153 170 184 177 166 178 175 193 168 156 159 134 111 116 97 101 92 82 70 113 131 183 164 140 73 75 104 78 120
182 168 172 148 167 174 172 169 166 160 163 176 174 178 174 170 170 171 169 162 165 167 175 181 179 174 175 176 176 169 170 145 155 163 163 161 175 166 151 160 153 195 167 155 147 136 112 106 93 92 94 115 110 137 155 180 135 95 108 113 142 142
176 165 170 164 169 172 173 172 166 171 171 178 179 178 180 175 174 173 172 167 168 170 185 182 184 183 182 187 174 170 144 147 158 154 157 163 178 161 164 161 173 184 202 148 134 113 114 127 127 122 130 124 125 141 138 118 124 105 159 82 66 130
181 181 161 152 188 171 176 163 167 180 176 184 184 183 180 181 173 171 177 168 169 175 183 182 190 187 190 193 172 161 139 149 157 156 155 175 160 162 170 169 155 149 174 169 144 144 140 127 116 123 117 114 120 127 116 132 98 79 83 107 135 161
179 170 164 168 162 185 164 154 180 183 179 206 174 181 188 181 173 176 180 165 172 171 183 184 186 189 193 187 166 150 148 154 154 156 159 172 157 162 167 159 148 133 165 188 136 142 125 119 117 122 128 122 116 100 100 108 130 165 127 167 134 135
186 180 173 166 164 169 168 171 173 208 210 193 180 177 184 182 178 180 180 167 168 177 178 183 184 193 198 189 175 158 147 160 158 162 162 166 159 162 170 158 153 152 144 124 146 137 144 133 116 110 101 90 82 104 113 119 109 128 164 163 127 133
188 181 174 171 181 175 174 169 181 198 203 173 221 172 181 182 183 183 178 168 171 182 177 181 184 192 190 182 176 166 163 162 162 162 161 153 163 156 171 159 148 154 153 151 150 147 135 146 139 124 116 110 110 102 97 116 105 105 125 139 139 150
184 188 178 177 179 179 172 170 173 176 199 210 181 181 176 172 192 170 177 168 179 181 182 180 178 183 186 180 174 170 167 168 159 161 153 147 149 164 165 158 149 154 170 157 138 152 142 175 171 157 146 144 129 119 114 125 132 115 120 116 181 129
187 191 187 183 184 176 161 154 205 169 207 185 182 175 171 173 171 166 168 170 175 178 177 175 172 174 178 180 178 172 164 159 165 159 159 148 151 172 178 165 165 167 157 145 144 156 174 257 174 169 164 166 142 142 158 125 112 111 68 75 92 110
181 196 186 182 185 168 166 172 180 225 197 178 189 163 159 153 162 163 167 171 170 173 172 174 172 175 180 172 177 173 167 164 165 170 173 152 167 176 163 161 166 173 169 158 163 162 183 228 224 186 176 241 150 191 153 157 136 69 106 112 98 75
183 190 190 182 182 165 172 178 187 191 193 163 142 155 156 158 167 166 162 172 164 170 173 175 175 179 172 167 174 173 172 165 164 176 170 167 169 173 164 169 168 176 185 176 168 163 177 212 206 78 265 140 182 333 227 132 163 111 87 91 87 97
187 188 191 184 179 171 174 180 173 174 177 167 171 170 169 166 167 169 169 164 162 168 177 172 174 177 167 165 167 170 170 168 166 177 173 169 169 164 168 170 170 185 189 201 200 167 172 167 195 235 20 56 275 125 143 155 198 122 70 113 91 88
187 185 188 183 176 168 164 190 187 188 175 178 169 177 171 163 167 162 161 164 160 169 176 170 175 169 159 162 166 166 165 173 164 173 169 169 171 174 172 178 168 184 188 190 200 182 169 153 168 178 230 346 326 286 101 141 169 133 141 111 80 90
174 175 191 186 168 180 187 181 191 206 176 202 169 170 156 161 163 158 159 164 159 167 175 170 171 169 162 162 164 166 166 166 175 171 176 176 173 176 168 168 165 179 176 184 188 198 169 159 201 161 201 201 179 230 167 199 254 217 109 136 122 113
110 198 197 198 173 202 188 187 197 184 198 186 161 148 155 154 156 156 158 159 165 162 166 168 168 166 171 160 158 161 159 162 178 171 177 173 173 164 158 151 166 169 180 177 181 197 175 173 214 173 175 208 219 170 167 221 67 293 171 141 139 132
152 187 13 205 213 200 200 169 217 148 154 235 156 154 153 145 148 154 156 160 161 162 159 159 160 166 165 160 159 153 167 168 171 172 181 154 156 148 146 156 160 156 163 173 170 178 205 178 210 281 214 163 215 159 194 147 191 179 106 127 154 141
174 173 183 212 219 186 217 215 187 183 200 189 151 148 145 147 146 160 157 161 164 160 160 156 160 158 168 155 157 162 166 164 159 169 171 161 172 157 146 142 147 154 162 181 169 172 181 220 182 232 214 155 243 163 220 169 162 162 166 138 130 127
204 190 177 159 195 209 220 201 234 210 185 158 152 151 150 153 154 161 158 160 161 158 161 156 166 158 160 158 156 151 150 156 159 168 163 162 168 162 147 146 149 164 157 169 158 182 197 176 198 196 230 156 313 324 110 212 148 153 181 134 148 136
183 183 168 152 119 172 188 208 201 207 181 159 157 156 156 154 161 163 161 165 163 165 162 164 168 162 158 163 154 147 151 152 145 161 160 159 148 154 147 152 148 152 142 164 173 187 186 173 191 197 190 197 201 185 158 27 122 137 132 127 133 142
179 170 176 161 184 183 185 165 164 236 172 173 167 163 163 160 162 168 166 162 168 164 164 165 165 166 160 164 157 148 145 130 121 134 150 144 138 152 158 163 142 141 144 156 148 173 180 170 185 213 184 193 188 162 114 120 144 163 136 145 146 149
176 183 164 171 181 189 166 116 98 359 321 209 173 174 171 160 168 169 167 160 169 161 163 163 168 159 165 165 150 149 135 125 121 122 134 136 136 138 140 137 128 121 133 144 149 172 159 167 177 188 188 199 165 164 157 152 172 170 152 139 155 153
172 171 174 176 182 179 154 125 117 115 110 287 203 189 171 164 172 169 163 162 161 164 160 159 156 155 167 166 157 145 140 124 124 129 133 134 142 137 129 130 128 125 127 135 148 162 148 162 170 170 181 183 190 158 165 149 173 145 131 130 144 151
170 171 175 179 182 172 166 159 156 151 148 233 221 190 174 171 168 166 160 161 159 163 151 154 147 155 163 164 158 155 136 124 125 131 129 131 129 126 139 135 128 127 124 130 132 138 147 148 151 173 171 179 193 144 158 129 135 131 121 141 132 140